Location: Katherine
(14.4670°S, 132.2670°E)
Time: 03:34:28
(UTC+09:30)

ISS - Pass Details

Date: 23 June 2018
Orbit: 402 x 406 km, 51.6° (Epoch: 22 June)

Event Time Altitude Azimuth Distance (km) Brightness Sun altitude
Rises 19:14:37 0° 295° (WNW) 2,305 2.1 -12.8°
Reaches altitude 10° 19:17:07 10° 276° (W) 1,452 0.3 -13.3°
Maximum altitude 19:19:28 18° 229° (SW) 1,060 -1.4 -13.9°
Drops below altitude 10° 19:21:50 10° 183° (S) 1,461 -1.2 -14.4°
Enters shadow 19:22:27 - 176° (S) 1,651 -1.0 -14.5°
